Tracking 31027 objects as of 19-Jul-2025
HD Live streaming from Space Station
objects crossing your sky now

TIROS 4

Track TIROS 4 now!
10-day predictions
TIROS 4 is classified as:


NORAD ID: 226
Int'l Code: 1962-002A
Perigee: 688.1 km
Apogee: 797.3 km
Inclination: 48.3 °
Period: 99.5 minutes
Semi major axis: 7113 km
RCS: 0.8251 m2 (medium)
Launch date: February 8, 1962
Source: United States (US)
Launch site: AIR FORCE EASTERN TEST RANGE (AFETR)
Your satellite tracking list
FENGYUN 1C DEB
Track 1 satellite(s)




NASA's NSSDC Master Catalog

Two Line Element Set (TLE):
1 00226U 62002A   25199.38258410 -.00000028  00000-0  38797-4 0  9996
2 00226  48.2965  81.6115 0076722 316.4854  43.0009 14.46969156320106
Source of the keplerian elements: AFSPC